EN

Hourly Weather Lukashi

Today, 27 November, Friday

Time Temperature Precipitation Wind Pressure Humidity
00:00 +3°C° 0 mm 4 mps 756 mmHg 89%
01:00 +2°C° 0 mm 5 mps 756 mmHg 89%
02:00 +2°C° 0 mm 5 mps 756 mmHg 89%
03:00 +2°C° 0 mm 5 mps 755 mmHg 89%
04:00 +2°C° 0 mm 5 mps 755 mmHg 90%
05:00 +2°C° 0 mm 6 mps 755 mmHg 91%
06:00 +2°C° 0 mm 6 mps 755 mmHg 89%
07:00 +2°C° 0 mm 6 mps 754 mmHg 87%
08:00 +2°C° 0 mm 6 mps 754 mmHg 85%
09:00 +3°C° 0 mm 7 mps 754 mmHg 79%
10:00 +3°C° 0 mm 7 mps 754 mmHg 72%
11:00 +4°C° 0 mm 7 mps 754 mmHg 66%
12:00 +4°C° 0 mm 6 mps 753 mmHg 63%
13:00 +4°C° 0 mm 6 mps 753 mmHg 61%
14:00 +5°C° 0 mm 5 mps 753 mmHg 58%
15:00 +4°C° 0 mm 4 mps 753 mmHg 61%
16:00 +4°C° 0 mm 4 mps 753 mmHg 64%
17:00 +3°C° 0 mm 3 mps 753 mmHg 67%
18:00 +3°C° 0 mm 3 mps 753 mmHg 68%
19:00 +2°C° 0 mm 3 mps 753 mmHg 70%
20:00 +2°C° 0 mm 3 mps 753 mmHg 71%
21:00 +2°C° 0 mm 3 mps 753 mmHg 73%
22:00 +3°C° 0 mm 3 mps 753 mmHg 74%
23:00 +4°C° 0 mm 2 mps 753 mmHg 75%

Tomorrow, 28 November, Saturday

Time Temperature Precipitation Wind Pressure Humidity
00:00 +4°C° 0 mm 2 mps 753 mmHg 78%
01:00 +4°C° 0 mm 2 mps 753 mmHg 81%
02:00 +3°C° 0 mm 2 mps 753 mmHg 85%
03:00 +4°C° 0.1 mm 1 mps 753 mmHg 88%
04:00 +4°C° 0.1 mm 1 mps 753 mmHg 91%
05:00 +3°C° 0.1 mm 0 mps 753 mmHg 94%
06:00 +3°C° 0.2 mm 0 mps 753 mmHg 94%
07:00 +3°C° 0.2 mm 0 mps 754 mmHg 94%
08:00 +3°C° 0.2 mm 0 mps 754 mmHg 94%
09:00 +4°C° 0.1 mm 1 mps 754 mmHg 91%
10:00 +5°C° 0.1 mm 1 mps 753 mmHg 89%
11:00 +5°C° 0.1 mm 1 mps 753 mmHg 86%
12:00 +5°C° 0 mm 1 mps 753 mmHg 83%
13:00 +5°C° 0 mm 1 mps 753 mmHg 79%
14:00 +6°C° 0 mm 1 mps 753 mmHg 76%
15:00 +5°C° 0 mm 1 mps 753 mmHg 77%
16:00 +5°C° 0 mm 1 mps 753 mmHg 78%
17:00 +5°C° 0 mm 1 mps 753 mmHg 79%
18:00 +5°C° 0 mm 1 mps 753 mmHg 79%
19:00 +5°C° 0 mm 1 mps 753 mmHg 79%
20:00 +4°C° 0 mm 1 mps 753 mmHg 80%
21:00 +4°C° 0 mm 1 mps 753 mmHg 80%
22:00 +4°C° 0 mm 1 mps 753 mmHg 80%
23:00 +4°C° 0 mm 1 mps 753 mmHg 80%

Day after tomorrow, 29 November, Sunday

Time Temperature Precipitation Wind Pressure Humidity
00:00 +4°C° 0.4 mm 2 mps 753 mmHg 84%
01:00 +4°C° 0.4 mm 2 mps 753 mmHg 87%
02:00 +4°C° 0.4 mm 2 mps 753 mmHg 91%
03:00 +4°C° 0.8 mm 2 mps 752 mmHg 92%
04:00 +4°C° 0.8 mm 2 mps 752 mmHg 94%
05:00 +4°C° 0.8 mm 3 mps 752 mmHg 95%
06:00 +4°C° 0.8 mm 3 mps 752 mmHg 94%
07:00 +4°C° 0.8 mm 3 mps 752 mmHg 92%
08:00 +4°C° 0.8 mm 3 mps 752 mmHg 91%
09:00 +4°C° 0.3 mm 3 mps 752 mmHg 91%
10:00 +4°C° 0.3 mm 3 mps 752 mmHg 90%
11:00 +4°C° 0.3 mm 3 mps 752 mmHg 90%
12:00 +4°C° 0.4 mm 3 mps 753 mmHg 89%
13:00 +4°C° 0.4 mm 3 mps 753 mmHg 88%
14:00 +4°C° 0.4 mm 3 mps 753 mmHg 87%
15:00 +5°C° 0.3 mm 2 mps 753 mmHg 89%
16:00 +4°C° 0.3 mm 2 mps 753 mmHg 91%
17:00 +4°C° 0.3 mm 2 mps 753 mmHg 93%
18:00 +5°C° 0.2 mm 1 mps 754 mmHg 93%
19:00 +5°C° 0.2 mm 1 mps 754 mmHg 93%
20:00 +5°C° 0.2 mm 1 mps 754 mmHg 93%
21:00 +5°C° 0 mm 1 mps 755 mmHg 92%
22:00 +5°C° 0 mm 1 mps 755 mmHg 90%
23:00 +4°C° 0 mm 1 mps 755 mmHg 89%

30 November, Monday

Time Temperature Precipitation Wind Pressure Humidity
00:00 +4°C° 0 mm 1 mps 755 mmHg 88%
01:00 +3°C° 0 mm 2 mps 755 mmHg 87%
02:00 +3°C° 0 mm 2 mps 756 mmHg 87%
03:00 +3°C° 0 mm 2 mps 756 mmHg 87%
04:00 +2°C° 0 mm 2 mps 756 mmHg 87%
05:00 +2°C° 0 mm 2 mps 756 mmHg 87%
06:00 +2°C° 0 mm 2 mps 756 mmHg 86%
07:00 +3°C° 0 mm 2 mps 757 mmHg 85%
08:00 +3°C° 0 mm 2 mps 757 mmHg 85%
09:00 +2°C° 0.1 mm 3 mps 757 mmHg 87%
10:00 +2°C° 0.1 mm 3 mps 757 mmHg 90%
11:00 +2°C° 0.1 mm 3 mps 758 mmHg 92%
12:00 +1°C° 0.7 mm 3 mps 758 mmHg 93%
13:00 +1°C° 0.7 mm 3 mps 758 mmHg 94%
14:00 0°C° 0.7 mm 4 mps 758 mmHg 95%
15:00 0°C° 0.7 mm 4 mps 758 mmHg 95%
16:00 0°C° 0.7 mm 4 mps 758 mmHg 96%
17:00 0°C° 0.7 mm 4 mps 758 mmHg 96%
18:00 +1°C° 0.6 mm 3 mps 758 mmHg 95%
19:00 +2°C° 0.6 mm 3 mps 759 mmHg 94%
20:00 +2°C° 0.6 mm 3 mps 759 mmHg 94%
21:00 +2°C° 0.2 mm 3 mps 759 mmHg 92%
22:00 +2°C° 0.2 mm 3 mps 759 mmHg 91%
23:00 +3°C° 0.2 mm 2 mps 759 mmHg 89%

1 December, Tuesday

Time Temperature Precipitation Wind Pressure Humidity
00:00 +3°C° 0.1 mm 2 mps 759 mmHg 89%
01:00 +3°C° 0.1 mm 2 mps 759 mmHg 89%
02:00 +3°C° 0.1 mm 2 mps 759 mmHg 88%
03:00 +3°C° 0 mm 2 mps 759 mmHg 88%
04:00 +3°C° 0 mm 2 mps 759 mmHg 87%
05:00 +3°C° 0 mm 2 mps 759 mmHg 86%
06:00 +2°C° 0 mm 3 mps 759 mmHg 84%
07:00 +2°C° 0 mm 3 mps 759 mmHg 82%
08:00 +2°C° 0 mm 3 mps 759 mmHg 81%
09:00 +1°C° 0.2 mm 3 mps 759 mmHg 81%
10:00 +1°C° 0.2 mm 3 mps 759 mmHg 81%
11:00 +1°C° 0.2 mm 3 mps 759 mmHg 82%
12:00 +1°C° 0.1 mm 3 mps 758 mmHg 85%
13:00 0°C° 0.1 mm 3 mps 758 mmHg 88%
14:00 0°C° 0.1 mm 3 mps 758 mmHg 92%
15:00 0°C° 0.1 mm 3 mps 758 mmHg 93%
16:00 0°C° 0.1 mm 3 mps 757 mmHg 94%
17:00 0°C° 0.1 mm 3 mps 757 mmHg 95%
18:00 0°C° 0 mm 3 mps 757 mmHg 95%
19:00 +1°C° 0 mm 2 mps 757 mmHg 95%
20:00 +1°C° 0 mm 2 mps 757 mmHg 95%
21:00 +1°C° 0.1 mm 2 mps 757 mmHg 96%
22:00 +1°C° 0.1 mm 2 mps 757 mmHg 96%
23:00 +1°C° 0.1 mm 2 mps 757 mmHg 96%

2 December, Wednesday

Time Temperature Precipitation Wind Pressure Humidity
00:00 +1°C° 0.2 mm 2 mps 757 mmHg 96%
01:00 +1°C° 0.2 mm 2 mps 757 mmHg 96%
02:00 +1°C° 0.2 mm 2 mps 757 mmHg 96%
03:00 +1°C° 0.3 mm 2 mps 756 mmHg 96%
04:00 +1°C° 0.3 mm 2 mps 756 mmHg 97%
05:00 +1°C° 0.3 mm 2 mps 756 mmHg 97%
06:00 +1°C° 0.2 mm 2 mps 756 mmHg 97%
07:00 +1°C° 0.2 mm 3 mps 756 mmHg 97%
08:00 +1°C° 0.2 mm 3 mps 757 mmHg 97%
09:00 +1°C° 0.1 mm 3 mps 757 mmHg 96%
10:00 -1°C° 0.1 mm 4 mps 757 mmHg 96%
11:00 -1°C° 0.1 mm 4 mps 757 mmHg 96%
12:00 -1°C° 0.1 mm 4 mps 757 mmHg 96%
13:00 -1°C° 0.1 mm 4 mps 757 mmHg 95%
14:00 -1°C° 0.1 mm 4 mps 757 mmHg 95%
15:00 -1°C° 0.1 mm 4 mps 757 mmHg 95%
16:00 -1°C° 0.1 mm 4 mps 757 mmHg 96%
17:00 -1°C° 0.1 mm 4 mps 757 mmHg 96%
18:00 -1°C° 0.2 mm 4 mps 757 mmHg 96%
19:00 -1°C° 0.2 mm 4 mps 758 mmHg 96%
20:00 -1°C° 0.2 mm 4 mps 758 mmHg 96%
21:00 -1°C° 0.1 mm 4 mps 758 mmHg 96%
22:00 -2°C° 0.1 mm 4 mps 758 mmHg 95%
23:00 -2°C° 0.1 mm 4 mps 758 mmHg 95%
Show more